DW5948 Weather Reports


time (UTC)temp
C
wind
direction
speed
KPH
gust
KPH
rain 1hr
cm
rain 24hr
cm
rain mn
cm
humidity
%
barometer
mb
20260506150028 26 259 1.6 6.4 0.00 0.00 0.00 88 1009.8
20260506144525 26 146 3.2 8.0 0.00 0.00 0.00 88 1009.4
20260506143022 26 122 0.0 8.0 0.00 0.00 0.00 90 1009.3
20260506141519 25 207 3.2 8.0 0.00 0.00 0.00 91 1009.2
20260506140016 25 139 1.6 9.7 0.00 0.00 0.00 93 1009.3
20260506134513 25 120 1.6 4.8 0.00 0.00 0.00 94 1009.4
20260506133011 24 131 0.0 1.6 0.00 0.00 0.00 95 1009.2
20260506131514 24 154 0.0 3.2 0.00 0.00 0.00 96 1009.4
20260506130010 23 162 1.6 4.8 0.00 0.00 0.00 96 1009.4
20260506124508 23 139 0.0 3.2 0.00 0.00 0.00 96 1009.4
20260506123007 23 166 0.0 3.2 0.00 0.00 0.00 96 1009.4
20260506121505 23 155 0.0 1.6 0.00 0.00 0.00 95 1009.1
20260506120006 23 125 0.0 1.6 0.00 0.00 0.00 95 1009.0
20260506114504 23 133 0.0 1.6 0.00 0.00 0.00 95 1008.9
20260506113004 23 139 0.0 3.2 0.00 0.00 0.00 95 1008.6
20260506111501 23 162 0.0 3.2 0.00 0.00 0.00 95 1008.4
20260506110002 23 149 0.0 6.4 0.00 0.00 0.00 95 1008.3
20260506104500 23 141 1.6 6.4 0.00 0.00 0.00 95 1008.3
20260506103059 23 155 0.0 6.4 0.00 0.00 0.00 94 1008.2
20260506101605 23 144 1.6 4.8 0.00 0.00 0.00 94 1008.2
20260506100058 23 152 0.0 4.8 0.00 0.00 0.00 94 1008.1
20260506094622 23 141 0.0 4.8 0.00 0.00 0.00 93 1008.0
20260506093057 23 165 0.0 6.4 0.00 0.00 0.00 93 1007.9
20260506091552 23 156 3.2 6.4 0.00 0.00 0.00 93 1008.0
20260506090051 24 145 3.2 6.4 0.00 0.00 0.00 92 1008.2
20260506084549 24 151 1.6 4.8 0.00 0.00 0.00 92 1008.2
20260506083049 24 139 0.0 4.8 0.00 0.00 0.00 92 1008.3
20260506081547 24 148 1.6 6.4 0.00 0.00 0.00 92 1008.4
20260506073046 24 153 3.2 8.0 0.00 0.00 0.00 92 1008.7
20260506071540 24 110 1.6 8.0 0.00 0.00 0.00 91 1008.7
20260506061538 25 141 1.6 8.0 0.00 0.00 0.00 91 1009.1
20260506044538 25 162 1.6 8.0 0.00 0.00 0.00 90 1009.1
20260506043028 25 131 0.0 8.0 0.00 0.00 0.00 90 1009.2
20260506041526 25 125 3.2 8.0 0.00 0.00 0.00 90 1008.8
20260506040048 25 214 1.6 11.3 0.00 0.00 0.00 89 1009.1
20260506034525 25 140 3.2 11.3 0.00 0.00 0.00 89 1008.8
20260506033024 25 120 3.2 14.5 0.00 0.00 0.00 88 1008.6
20260506031538 25 126 1.6 14.5 0.00 0.00 0.00 88 1008.5
20260506030022 25 169 4.8 14.5 0.00 0.00 0.00 87 1008.5
20260506024522 25 159 4.8 11.3 0.00 0.00 0.00 87 1008.2
20260506023021 25 108 3.2 12.9 0.00 0.00 0.00 87 1008.1
20260506021521 25 190 3.2 8.0 0.00 0.00 0.00 86 1007.9
20260506020020 25 226 4.8 11.3 0.00 0.00 0.00 86 1007.7
20260506014519 26 101 4.8 11.3 0.00 0.00 0.00 85 1007.5
20260506013019 26 143 3.2 9.7 0.00 0.00 0.00 85 1007.2
20260506011519 26 169 4.8 16.1 0.00 0.00 0.00 84 1006.9
20260506010018 26 122 4.8 9.7 0.00 0.00 0.00 83 1006.9
20260506004524 26 112 1.6 12.9 0.00 0.00 0.00 82 1006.8
20260506003017 26 141 4.8 11.3 0.00 0.00 0.00 81 1006.5
20260506001515 26 126 3.2 12.9 0.00 0.00 0.00 80 1006.5
20260506000017 26 125 6.4 17.7 0.00 0.00 0.00 79 1006.6
20260505234515 27 188 6.4 19.3 0.00 0.00 0.00 79 1006.5
20260505233014 27 140 6.4 20.9 0.00 0.00 0.00 80 1006.5
20260505231513 27 235 6.4 16.1 0.00 0.00 0.00 79 1006.5
20260505230021 27 110 8.0 20.9 0.00 0.00 0.00 79 1006.6
20260505224512 27 131 6.4 16.1 0.00 0.00 0.00 80 1006.5
20260505223011 27 198 4.8 16.1 0.00 0.00 0.00 79 1006.7
20260505221510 27 142 6.4 17.7 0.00 0.00 0.00 79 1006.6
20260505220007 28 180 6.4 17.7 0.00 0.00 0.00 78 1006.8
20260505214506 28 217 3.2 14.5 0.00 0.00 0.00 78 1007.0
20260505213004 28 191 4.8 14.5 0.00 0.00 0.00 78 1007.1
20260505211502 28 165 6.4 22.5 0.00 0.00 0.00 78 1007.3
20260505210103 28 169 4.8 17.7 0.00 0.00 0.00 79 1007.5
20260505204602 28 137 6.4 24.1 0.00 0.00 0.00 78 1007.8
20260505203059 28 145 4.8 16.1 0.00 0.00 0.00 77 1007.9
20260505201559 28 133 4.8 14.5 0.00 0.00 0.00 77 1008.1
20260505200055 28 173 3.2 17.7 0.00 0.00 0.00 76 1008.3
20260505194608 28 146 3.2 12.9 0.00 0.00 0.00 79 1008.4
20260505193050 28 132 3.2 12.9 0.00 0.00 0.00 79 1008.5
20260505191550 27 113 1.6 9.7 0.00 0.00 0.00 80 1008.7
20260505190048 27 204 4.8 12.9 0.00 0.00 0.00 79 1008.6
20260505184548 27 152 1.6 12.9 0.00 0.00 0.00 81 1008.8
20260505183048 27 281 1.6 12.9 0.00 0.00 0.00 80 1008.9
20260505181550 27 240 0.0 8.0 0.00 0.00 0.00 82 1009.0
20260505180044 27 160 3.2 11.3 0.00 0.00 0.00 82 1009.2
20260505174546 26 123 1.6 12.9 0.00 0.00 0.00 83 1009.3
20260505173041 26 191 1.6 9.7 0.00 0.00 0.00 83 1009.5
20260505171541 26 131 1.6 14.5 0.00 0.00 0.00 83 1009.4
20260505170040 26 121 4.8 14.5 0.00 0.00 0.00 82 1009.5
20260505164542 26 136 1.6 16.1 0.00 0.00 0.00 83 1009.5
20260505163046 26 232 3.2 9.7 0.00 0.00 0.00 85 1009.4
20260505161533 25 182 1.6 12.9 0.00 0.00 0.00 87 1009.4
20260505153028 25 151 6.4 14.5 0.00 0.00 0.00 88 1009.2
20260505151526 25 198 4.8 12.9 0.00 0.00 0.00 88 1009.2